Regional Weather Roundup
Issued by NWS

Home | Current Version | Previous Version | Graphics & Text | Print | Product List | Glossary Off
Versions: 1 2 3 4 5 6 7 8 9 10 11 12 13 14 15 16 17 18 19 20 21 22 23 24 25 26 27 28 29 30 31 32 33 34 35 36 37 38 39 40 41 42 43 44 45 46 47 48 49 50

000
ASUS43 KDMX 230707
RWRIA

WEATHER ROUNDUP FOR IOWA
NATIONAL WEATHER SERVICE DES MOINES IA
200 AM CDT SAT MAY 23 2015

NOTE: "FAIR" INDICATES FEW OR NO CLOUDS BELOW 12,000 FEET WITH NO
SIGNIFICANT WEATHER AND/OR OBSTRUCTIONS TO VISIBILITY.

* - THESE STATIONS ARE NOT NWS STATIONS...THUS NOT UNDER NWS
QUALITY CONTROL.  THEY ALSO DO NOT REPORT WEATHER SUCH
AS PRECIPITATION OR FOG.

IAZ001>003-012>014-020>022-031>034-043>046-230800-
   NORTHWEST IOWA

CITY           SKY/WX    TMP DP  RH WIND       PRES   REMARKS
CARROLL *      CLOUDY    59  45  58 CALM      30.20F
CHEROKEE *     DRIZZLE   57  50  77 CALM      30.20S
DENISON *      MOCLDY    57  48  72 S6        30.19S
LE MARS *      CLOUDY    59  46  63 SE5       30.20S
ORANGE CITY *  CLOUDY    55  46  71 SE3       30.20F
SHELDON *      CLOUDY    57  46  67 SW7G14    30.22R
SIOUX CITY     CLOUDY    56  50  80 CALM      30.19S
SPENCER        CLOUDY    57  49  74 NE3       30.21S
STORM LAKE *   MOCLDY    59  46  63 SE6       30.22S
$$

IAZ055>058-069>071-079>083-090>094-230800-
   SOUTHWEST IOWA

CITY           SKY/WX    TMP DP  RH WIND       PRES   REMARKS
ATLANTIC *     CLOUDY    54  48  82 CALM      30.21S
AUDUBON *      MOCLDY    54  48  82 CALM      30.22S
CLARINDA *     CLOUDY    54  50  87 CALM      30.22F
COUNCIL BLFS * CLOUDY    57  52  82 SE9       30.20S
CRESTON *      CLOUDY    57  50  77 S6        30.22S
HARLAN  *      CLOUDY    54  54 100 CALM      30.24R
LAMONI           N/A     59  52  77 S3        30.22S
RED OAK *      CLOUDY    55  50  82 S3        30.21S
SHENANDOAH *   CLOUDY    57  52  82 SE6       30.21S
$$

IAZ047>049-059>061-072>074-084-230800-
   CENTRAL IOWA

CITY           SKY/WX    TMP DP  RH WIND       PRES   REMARKS
AMES           CLOUDY    56  50  80 SW3       30.22R
ANKENY *       CLEAR     54  50  87 CALM      30.22S
CHARITON *     PTCLDY    54  50  87 S5        30.23R
DES MOINES     MOCLDY    60  48  64 CALM      30.22S
GRINNELL*      CLOUDY    57  46  67 CALM      30.23S
KNOXVILLE *    CLOUDY    57  48  72 SW5       30.21S
MARSHALLTOWN   CLOUDY    59  48  67 CALM      30.21F
PELLA *        PTCLDY    55  52  88 CALM      30.24R
PERRY *        CLOUDY    55  50  82 SE5       30.21S
$$

IAZ004>006-015-016-023>025-035-036-230800-
   NORTH CENTRAL IOWA

CITY           SKY/WX    TMP DP  RH WIND       PRES   REMARKS
ALGONA *       CLOUDY    57  48  72 CALM      30.23R
CLARION *      CLOUDY    57  50  77 CALM      30.23S
ESTHERVILLE    CLOUDY    55  44  66 CALM      30.21S
FORT DODGE *   CLOUDY    55  48  76 NE3       30.22R
MASON CITY     CLOUDY    55  46  71 NW5       30.23S
FOREST CITY *  CLEAR     55  43  62 CALM      30.23S
IOWA FALLS *   MOCLDY    57  46  67 CALM      30.23S
$$

IAZ007>011-017>019-026>030-037>042-050>054-066-230800-
   NORTHEAST IOWA

CITY           SKY/WX    TMP DP  RH WIND       PRES   REMARKS
CEDAR RAPIDS   CLOUDY    58  50  75 CALM      30.22R
CHARLES CITY * CLOUDY    57  43  58 W8        30.22S
CLINTON *      CLOUDY    57  37  47 E8        30.27S
DECORAH *      CLEAR     57  41  54 CALM      30.22R
DUBUQUE        CLOUDY    57  41  55 SE12      30.25R
MONTICELLO *   PTCLDY    55  52  88 W8        30.23S
OELWEIN *      MOCLDY    55  45  67 S5        30.23S
WATERLOO       CLOUDY    57  47  69 W3        30.22R
$$

IAZ064-065-067-068-078-230800-
   EAST CENTRAL IOWA

CITY           SKY/WX    TMP DP  RH WIND       PRES   REMARKS
DAVENPORT      CLOUDY    59  44  57 E6        30.24S
IOWA CITY      CLOUDY    62  49  62 CALM      30.24R
MT. PLEASANT * CLOUDY    55  52  88 CALM      30.23R
MUSCATINE *    MOCLDY    64  52  63 CALM      30.23R
QUAD CITIES    MOCLDY    57  48  72 E7        30.23S
$$

IAZ062-063-075>077-085>089-095>099-230800-
   SOUTHEAST IOWA

CITY           SKY/WX    TMP DP  RH WIND       PRES   REMARKS
BURLINGTON     CLOUDY    58  55  90 CALM      30.22S
FAIRFIELD *    PTCLDY    54  50  87 SW6       30.24R
FORT MADISON * PTCLDY    57  54  88 SW3       30.24R
KEOKUK *       PTCLDY    57  55  94 CALM      30.23S
OSKALOOSA *    MOCLDY    57  50  77 CALM      30.24R
CENTERVILLE *  CLEAR     48  48 100 CALM      30.25R
OTTUMWA        PTCLDY    51  49  92 CALM      30.23S
WASHINGTON *   PTCLDY    55  52  88 NW5       30.24S
$$

ABBREVIATIONS USED IN REMARKS
   TC - TEMPERATURES IN CELSIUS
  WCI - WIND CHILL INDEX
   HX - HEAT INDEX
  VSB - VISIBILITY
$$




USA.gov is the U.S. government's official web portal to all federal, state and local government web resources and services.